Date String (YYYY-MM-DD hh:mm:ss) UTC,Instrument flags,absolute air pressure of the measurement (hPa),sample flow rate (lpm),inlet stack bypass flow (lpm),air temperature of the measurement (°C),ambient temperature measured by the external sensor (°C),aerosol sample conditioner tube jacket temperature (°C),OPC LED temperature (°C),internal box temperature (°C),relative humidity of the measurement (%),span deviation,mass concentration of particles derived from Lorenz-Mie calculation of OPC scattering (μg/m³),mass concentration of particles derived from Lorenz-Mie calculation of OPC scattering (μg/m³),mass concentration of particles derived from Lorenz-Mie calculation of OPC scattering (μg/m³)
DateTimeUTC,F1_M11,P_M11,Q1_M11,Q2_M11,T1_M11,T2_M11,T3_M11,T4_M11,T5_M11,U1_M11,ZSPAN_M11,X0_M11,X2_M11,X1_M11
2024-01-13 10:00:00,SystemResetWarning,0820.2,5.01,000.00,019.0,018.0,000.0,027.4,020.3,4.5,0004.3,0008.27,0004.33,0003.94
2024-01-13 10:01:00,SystemResetWarning,0819.9,5.01,000.00,019.1,018.7,000.0,027.4,020.7,4.5,0004.2,0008.33,0004.35,0003.95
2024-01-13 10:02:00,SystemResetWarning,0820.0,4.99,000.00,019.2,019.2,000.0,027.4,020.9,4.5,0004.4,0008.08,0004.36,0003.95
2024-01-13 10:03:00,SystemResetWarning,0820.2,4.99,000.00,019.2,019.0,000.0,027.4,020.4,4.5,0002.7,0007.57,0004.33,0003.93
2024-01-13 10:04:00,SystemResetWarning,0820.1,4.99,000.00,019.1,018.7,000.0,027.4,020.0,4.5,0004.4,0007.45,0004.33,0003.92
2024-01-13 10:05:00,SystemResetWarning,0819.9,5.01,000.00,019.0,018.3,000.0,027.4,020.0,4.5,0004.3,0007.47,0004.33,0003.92
2024-01-13 10:06:00,SystemResetWarning,0820.0,5.00,000.00,019.0,018.1,000.0,027.4,020.0,4.5,0004.1,0007.34,0004.29,0003.90
2024-01-13 10:07:00,SystemResetWarning,0820.0,5.00,000.00,019.0,017.9,000.0,027.5,020.0,4.5,0003.9,0007.32,0004.26,0003.89
2024-01-13 10:08:00,SystemResetWarning,0820.1,5.00,000.00,019.0,018.0,000.0,027.4,020.3,4.5,0003.1,0007.30,0004.22,0003.86
2024-01-13 10:09:00,SystemResetWarning,0820.1,5.02,000.00,019.1,018.7,000.0,027.4,020.8,4.5,0000.9,0007.42,0004.18,0003.84
2024-01-13 10:10:00,SystemResetWarning,0820.2,4.99,000.00,019.2,019.3,000.0,027.4,021.0,4.4,0000.0,0007.50,0004.14,0003.82
2024-01-13 10:11:00,SystemResetWarning,0820.1,4.98,000.00,019.2,019.2,000.0,027.4,020.4,4.5,0000.0,0007.29,0004.12,0003.80
2024-01-13 10:12:00,SystemResetWarning,0820.0,5.00,000.00,019.1,018.8,000.0,027.4,020.0,4.5,0000.0,0007.26,0004.10,0003.78
2024-01-13 10:13:00,SystemResetWarning,0820.1,5.00,000.00,019.0,018.4,000.0,027.4,020.0,4.5,0000.0,0007.10,0004.07,0003.76
2024-01-13 10:14:00,SystemResetWarning,0819.9,5.00,000.00,019.0,018.2,000.0,027.5,020.0,4.5,0000.0,0006.97,0004.03,0003.74
2024-01-13 10:15:00,SystemResetWarning,0820.1,5.00,000.00,019.0,017.9,000.0,027.5,020.0,4.5,0000.0,0006.89,0003.99,0003.71
2024-01-13 10:16:00,SystemResetWarning,0820.2,5.01,000.00,019.0,018.1,000.0,027.4,020.4,4.5,0001.9,0006.81,0003.96,0003.68
2024-01-13 10:17:00,SystemResetWarning,0820.1,5.00,000.00,019.1,018.7,000.0,027.4,020.8,4.5,0001.9,0006.78,0003.94,0003.67
2024-01-13 10:18:00,SystemResetWarning,0820.3,5.00,000.00,019.2,019.3,000.0,027.4,021.0,4.4,0001.8,0006.66,0003.92,0003.66
2024-01-13 10:19:00,SystemResetWarning,0820.2,5.00,000.00,019.2,019.2,000.0,027.4,020.4,4.4,0003.4,0006.49,0003.91,0003.64
2024-01-13 10:20:00,SystemResetWarning,0820.2,4.99,000.00,019.1,018.8,000.0,027.4,020.0,4.4,0003.9,0006.31,0003.90,0003.63
2024-01-13 10:21:00,SystemResetWarning,0820.2,5.00,000.00,019.0,018.5,000.0,027.4,020.0,4.5,0003.9,0005.86,0003.90,0003.63
2024-01-13 10:22:00,SystemResetWarning,0820.0,5.00,000.00,019.0,018.2,000.0,027.5,020.0,4.4,0003.6,0005.98,0003.90,0003.61
2024-01-13 10:23:00,SystemResetWarning,0819.9,5.01,000.00,019.0,017.9,000.0,027.5,020.0,4.4,0003.7,0005.73,0003.88,0003.60
2024-01-13 10:24:00,SystemResetWarning,0819.6,5.01,000.00,019.0,018.1,000.0,027.4,020.3,4.4,0003.9,0005.70,0003.87,0003.60
2024-01-13 10:25:00,SystemResetWarning,0819.9,5.00,000.00,019.1,018.7,000.0,027.4,020.8,4.5,0004.2,0005.70,0003.88,0003.60
2024-01-13 10:26:00,SystemResetWarning,0820.0,5.00,000.00,019.2,019.3,000.0,027.4,021.0,4.4,0002.1,0005.67,0003.88,0003.62
2024-01-13 10:27:00,SystemResetWarning,0819.9,4.99,000.00,019.2,019.2,000.0,027.4,020.4,4.4,0000.0,0005.58,0003.86,0003.62
2024-01-13 10:28:00,SystemResetWarning,0819.8,4.99,000.00,019.1,018.8,000.0,027.4,020.0,4.4,0000.0,0005.55,0003.85,0003.61
2024-01-13 10:29:00,SystemResetWarning,0819.7,5.00,000.00,019.1,018.4,000.0,027.4,020.0,4.5,0000.0,0005.51,0003.86,0003.62
2024-01-13 10:30:00,SystemResetWarning,0820.0,5.01,000.00,019.0,018.1,000.0,027.5,020.0,4.5,0000.0,0005.54,0003.87,0003.63
2024-01-13 10:31:00,SystemResetWarning,0820.3,4.99,000.00,019.0,018.0,000.0,027.5,020.2,4.4,0000.0,0006.17,0003.90,0003.65
2024-01-13 10:32:00,SystemResetWarning,0820.2,5.02,000.00,019.1,018.5,000.0,027.4,020.6,4.4,0000.0,0006.32,0003.91,0003.67
2024-01-13 10:33:00,SystemResetWarning,0820.0,4.99,000.00,019.2,019.2,000.0,027.4,021.0,4.4,0000.0,0006.27,0003.92,0003.69
2024-01-13 10:34:00,SystemResetWarning,0820.2,4.99,000.00,019.3,019.3,000.0,027.4,020.7,4.3,0000.0,0006.31,0003.94,0003.71
2024-01-13 10:35:00,SystemResetWarning,0819.9,4.99,000.00,019.2,019.0,000.0,027.4,020.2,4.3,0000.0,0006.55,0003.98,0003.74
2024-01-13 10:36:00,SystemResetWarning,0820.1,5.00,000.00,019.1,018.6,000.0,027.4,020.0,4.4,0000.0,0007.46,0004.04,0003.78
2024-01-13 10:37:00,SystemResetWarning,0819.9,5.02,000.00,019.0,018.3,000.0,027.5,020.0,4.4,0000.9,0007.64,0004.10,0003.82
2024-01-13 10:38:00,SystemResetWarning,0819.9,4.98,000.00,019.0,018.0,000.0,027.5,020.0,4.4,0000.0,0007.70,0004.15,0003.87
2024-01-13 10:39:00,SystemResetWarning,0820.0,4.99,000.00,019.0,017.9,000.0,027.5,020.2,4.4,0001.5,0007.77,0004.20,0003.92
2024-01-13 10:40:00,SystemResetWarning,0819.9,5.02,000.00,019.1,018.4,000.0,027.4,020.6,4.4,0004.2,0007.89,0004.25,0003.97
2024-01-13 10:41:00,SystemResetWarning,0820.0,5.00,000.00,019.2,019.0,000.0,027.4,021.0,4.4,0004.3,0008.43,0004.31,0004.02
2024-01-13 10:42:00,SystemResetWarning,0820.0,5.00,000.00,019.3,019.2,000.0,027.4,020.7,4.3,0004.6,0008.24,0004.35,0004.06
2024-01-13 10:43:00,SystemResetWarning,0820.1,4.99,000.00,019.2,018.9,000.0,027.4,020.1,4.3,0004.2,0008.18,0004.38,0004.09
2024-01-13 10:44:00,SystemResetWarning,0820.1,4.99,000.00,019.1,018.5,000.0,027.4,020.0,4.3,0004.1,0008.25,0004.43,0004.12
2024-01-13 10:45:00,SystemResetWarning,0820.0,5.00,000.00,019.0,018.2,000.0,027.5,020.0,4.4,0003.9,0008.41,0004.47,0004.13
2024-01-13 10:46:00,SystemResetWarning,0820.0,5.00,000.00,019.0,017.9,000.0,027.5,020.0,4.3,0003.6,0008.50,0004.50,0004.14
2024-01-13 10:47:00,SystemResetWarning,0820.1,5.01,000.00,019.0,018.1,000.0,027.4,020.4,4.3,0003.3,0008.05,0004.49,0004.13
2024-01-13 10:48:00,SystemResetWarning,0820.2,5.01,000.00,019.1,018.8,000.0,027.4,020.8,4.3,0003.2,0007.91,0004.48,0004.12
2024-01-13 10:49:00,SystemResetWarning,0820.1,4.99,000.00,019.2,018.9,000.0,027.4,020.5,4.3,0003.0,0007.97,0004.48,0004.11
2024-01-13 10:50:00,SystemResetWarning,0820.1,4.99,000.00,019.1,018.6,000.0,027.4,020.0,4.3,0002.8,0008.01,0004.48,0004.09
2024-01-13 10:51:00,SystemResetWarning,0820.3,5.01,000.00,019.0,018.3,000.0,027.4,020.0,4.3,0002.9,0007.91,0004.43,0004.05
2024-01-13 10:52:00,SystemResetWarning,0820.2,5.01,000.00,019.0,018.1,000.0,027.4,020.0,4.3,0002.9,0007.54,0004.39,0004.02
2024-01-13 10:53:00,SystemResetWarning,0820.1,5.01,000.00,018.9,017.9,000.0,027.4,020.0,4.3,0001.3,0007.46,0004.34,0003.97
2024-01-13 10:54:00,SystemResetWarning,0820.3,5.00,000.00,019.0,018.1,000.0,027.4,020.4,4.3,0002.6,0007.40,0004.29,0003.91
2024-01-13 10:55:00,SystemResetWarning,0820.1,5.00,000.00,019.1,018.8,000.0,027.4,020.8,4.3,0001.3,0007.22,0004.19,0003.85
2024-01-13 10:56:00,SystemResetWarning,0820.0,5.00,000.00,019.2,019.3,000.0,027.4,020.9,4.3,0000.0,0006.86,0004.14,0003.81
2024-01-13 10:57:00,SystemResetWarning,0820.2,4.99,000.00,019.2,019.1,000.0,027.4,020.3,4.3,0000.0,0006.53,0004.05,0003.76
2024-01-13 10:58:00,SystemResetWarning,0820.0,4.99,000.00,019.1,018.7,000.0,027.4,020.0,4.3,0000.0,0006.43,0004.01,0003.72
2024-01-13 10:59:00,SystemResetWarning,0820.0,5.01,000.00,019.1,018.4,000.0,027.4,020.0,4.3,0000.0,0006.37,0003.97,0003.67
